OBJECT AD, 67275

Orbit data source: Space-Track

You're viewing an Uncataloged Satellite

Recently launched and/or uncataloged satellites may have evolving metadata. Metadata may include but not limited to: Owner, Maufacturer, Bus, Motor, and Mission.

OBJECT AD, 67275 is a satellite in SSO that was launched on Sun, 28 Dec 2025 UTC via a SOYUZ-2-1B launch vehicle from the Vostochny Cosmodrome (VOSTO). Unknown objects in Earth's orbit typically refer to objects detected orbiting the Earth but have not yet been identified or cataloged. These objects could be anything from previously untracked satellites, spent rocket stages, debris from satellite collisions, or even natural meteoroids temporarily captured by Earth's gravity.

Loading next visibility...
Identifier
67275, 2025-313AD
Orbit
SSO
Country
Flag of TBDTBD
Related business
None
Manufacturer
Unknown
Mission
Operational Commercial Communications
Bus & Motor
Unknown
Mass
Unknown
Launch date (UTC)
2025-12-28 (6 months ago)
Launch vehicle
SOYUZ-2-1B
Launch site
Vostochny Cosmodrome (VOSTO)
Object type
Unknown
Shape & HBR
Box, 0.1 m
Radar Cross Section
0.035 m², Medium (>0.1 m² and < 1m²)

Expand to show TLE details & history
Last TLE update: 1 day ago

TLE from 1 day ago
0 OBJECT AD
1 67275U 25313AD  26170.71868118  .00004603  00000-0  19974-3 0  9993
2 67275  97.3915 245.2243 0013683   6.9746 353.1678 15.22748185 26338
Epoch: 2026-06-19T17:14Z
TLE epoch observation values (Epoch: 2026-06-19T17:14:54.053Z)
Latitude
-0.0001°
Longitude
78.55546°
Altitude
491.307 km
Speed
7.624 km/s
True Right ascension
16h 20m 53s
True Declination
0° 00' 00"
Sunlit
Object was in full shadow at epoch
Visualization orbit readout
Latitude
Unknown
Longitude
Unknown
Altitude
Unknown
Speed
Unknown
Apparent Right ascension
Unknown
Apparent Declination
Unknown
Sunlit
N/A
Visualization observer readout
Local Sidereal Time
07:16:55
Azimuth
Unknown
Elevation
Unknown
Doppler factor
Unknown
Orbital elements
Apogee altitude
503.921 km
Perigee altitude
485.113 km
Semi-major axis
6,872.654 km
Eccentricity
0.00137
Inclination
97.3915°
RAAN
245.2243°
Arg. of periapsis
6.9746°
True anomaly
353.14912°
Mean anomaly
353.1678°
Eccentric anomaly
353.15846°
Mean motion
3.8094 °/min
Orbital period
94.5 mins
BSTAR
0.00019974
Loading maneuver chart data...
Computing Atmospheric mass density...
Loading historical data...
Loading historical data...
Loading historical data...
Loading historical data...
Loading historical data...
Loading historical data...
Loading historical data...

Documentation

Showing up to 5 results
|